FW5485 Weather Reports


time (UTC)temp
C
wind
direction
speed
KPH
gust
KPH
rain 1hr
cm
rain 24hr
cm
rain mn
cm
humidity
%
barometer
mb
20260510081036 9 0.0 0.0 0.00 0.00 0.00 93 1011.9
20260510080016 10 0.0 0.0 0.00 0.00 0.00 93 1011.7
20260510075036 10 0.0 0.0 0.00 0.00 0.00 93 1011.6
20260510074016 10 0.0 0.0 0.00 0.00 0.00 93 1011.6
20260510073016 10 0.0 0.0 0.00 0.00 0.00 93 1011.5
20260510072016 10 0.0 0.0 0.00 0.00 0.00 92 1011.6
20260510071036 10 0.0 0.0 0.00 0.00 0.00 92 1011.7
20260510070016 10 0.0 0.0 0.00 0.00 0.00 92 1011.8
20260510065016 10 0.0 0.0 0.00 0.00 0.00 92 1011.6
20260510064016 11 0.0 0.0 0.00 0.00 0.00 92 1011.7
20260510063016 11 0.0 0.0 0.00 0.00 0.00 92 1011.7
20260510062016 11 0.0 0.0 0.00 0.00 0.00 92 1011.5
20260510061016 11 0.0 0.0 0.00 0.00 0.00 91 1011.5
20260510060016 11 0.0 0.0 0.00 0.00 0.00 92 1011.2
20260510055016 11 0.0 0.0 0.00 0.00 0.00 92 1011.2
20260510054015 11 0.0 0.0 0.00 0.00 0.00 91 1011.5
20260510053036 11 0.0 0.0 0.00 0.00 0.00 91 1011.7
20260510052015 11 0.0 0.0 0.00 0.00 0.00 91 1011.5
20260510051015 11 0.0 0.0 0.00 0.00 0.00 91 1011.5
20260510050015 12 0.0 0.0 0.00 0.00 0.00 90 1011.4
20260510045016 12 0.0 0.0 0.00 0.00 0.00 90 1011.3
20260510044015 12 0.0 0.0 0.00 0.00 0.00 90 1011.4
20260510043016 12 0.0 0.0 0.00 0.00 0.00 89 1011.2
20260510042015 12 0.0 0.0 0.00 0.00 0.00 89 1011.2
20260510041035 12 0.0 0.0 0.00 0.00 0.00 88 1011.1
20260510040015 13 0.0 0.0 0.00 0.00 0.00 88 1011.0
20260510035017 13 0.0 0.0 0.00 0.00 0.00 88 1011.0
20260510034037 13 0.0 0.0 0.00 0.00 0.00 87 1010.9
20260510033017 13 0.0 0.0 0.00 0.00 0.00 86 1010.9
20260510032017 13 0.0 0.0 0.00 0.00 0.00 86 1010.8
20260510031037 14 0.0 0.0 0.00 0.00 0.00 85 1010.8
20260510030017 14 0.0 0.0 0.00 0.00 0.00 85 1010.8
20260510025037 14 0.0 0.0 0.00 0.00 0.00 85 1010.6
20260510024017 14 0.0 0.0 0.00 0.00 0.00 85 1010.4
20260510023017 14 0.0 0.0 0.00 0.00 0.00 85 1010.2
20260510022017 14 0.0 0.0 0.00 0.00 0.00 85 1010.2
20260510021017 14 0.0 0.0 0.00 0.00 0.00 84 1010.0
20260510020018 14 0.0 0.0 0.00 0.00 0.00 83 1010.0
20260510015036 15 0.0 0.0 0.00 0.00 0.00 82 1009.7
20260510014017 15 0.0 0.0 0.00 0.00 0.00 81 1009.7
20260510013016 15 0.0 0.0 0.00 0.00 0.00 81 1009.5
20260510012037 15 0.0 0.0 0.00 0.00 0.00 80 1009.4
20260510011016 16 0.0 0.0 0.00 0.00 0.00 78 1009.3
20260510010016 16 0.0 0.0 0.00 0.00 0.00 78 1009.2
20260510005016 17 0.0 0.0 0.00 0.00 0.00 76 1009.0
20260510004016 17 0.0 0.0 0.00 0.00 0.00 76 1008.9
20260510003016 17 0.0 0.0 0.00 0.00 0.00 73 1008.8
20260510002017 18 0.0 0.0 0.00 0.00 0.00 72 1008.7
20260510001016 19 0.0 0.0 0.00 0.00 0.00 71 1008.6
20260510000016 20 0.0 0.0 0.00 0.00 0.00 68 1008.5
20260509235016 20 0.0 0.0 0.00 0.00 0.00 67 1008.4
20260509234016 21 0.0 0.0 0.00 0.00 0.00 65 1008.4
20260509233016 22 0.0 0.0 0.00 0.00 0.00 58 1008.3
20260509232016 22 0.0 0.0 0.00 0.00 0.00 56 1008.4
20260509231016 22 0.0 0.0 0.00 0.00 0.00 56 1008.5
20260509230016 23 0.0 0.0 0.00 0.00 0.00 54 1008.5
20260509225036 23 0.0 3.2 0.00 0.00 0.00 52 1008.4
20260509224016 23 0.0 3.2 0.00 0.00 0.00 52 1008.6
20260509223036 23 0 1.6 3.2 0.00 0.00 0.00 53 1008.4
20260509222017 23 0 1.6 6.4 0.00 0.00 0.00 52 1008.4
20260509221016 23 0 1.6 6.4 0.00 0.00 0.00 53 1008.4
20260509220016 23 0 1.6 8.0 0.00 0.00 0.00 53 1008.4
20260509215016 23 0 3.2 8.0 0.00 0.00 0.00 52 1008.3
20260509214036 23 0 1.6 6.4 0.00 0.00 0.00 51 1008.4
20260509213036 24 45 1.6 6.4 0.00 0.00 0.00 56 1008.3
20260509212016 25 0 1.6 11.3 0.00 0.00 0.00 49 1008.3
20260509211036 25 0 4.8 12.9 0.00 0.00 0.00 47 1008.2
20260509210016 25 0 1.6 8.0 0.00 0.00 0.00 48 1008.3
20260509205036 23 0 1.6 4.8 0.00 0.00 0.00 51 1008.2
20260509204016 24 0 3.2 8.0 0.00 0.00 0.00 52 1008.3
20260509203016 24 0 1.6 6.4 0.00 0.00 0.00 51 1008.1
20260509202016 25 0 1.6 3.2 0.00 0.00 0.00 48 1008.1
20260509201036 25 0 1.6 6.4 0.00 0.00 0.00 50 1007.8
20260509200016 25 0 3.2 9.7 0.00 0.00 0.00 48 1008.0
20260509195016 25 0 3.2 9.7 0.00 0.00 0.00 51 1008.2
20260509194036 25 0 3.2 8.0 0.00 0.00 0.00 50 1008.2
20260509193015 25 0 1.6 4.8 0.00 0.00 0.00 51 1008.3
20260509192016 25 0 1.6 4.8 0.00 0.00 0.00 54 1008.3
20260509191035 24 0 1.6 8.0 0.00 0.00 0.00 55 1008.6
20260509190015 23 0 3.2 8.0 0.00 0.00 0.00 55 1008.9
20260509185015 22 0 1.6 9.7 0.00 0.00 0.00 60 1009.0
20260509184035 23 337 3.2 9.7 0.00 0.00 0.00 54 1009.1
20260509183015 23 0 3.2 8.0 0.00 0.00 0.00 62 1009.3
20260509182015 22 0 3.2 9.7 0.00 0.00 0.00 58 1009.4
20260509181017 21 0 3.2 12.9 0.00 0.00 0.00 61 1009.5
20260509180015 22 0 1.6 12.9 0.00 0.00 0.00 58 1009.5
20260509175015 22 0 3.2 8.0 0.00 0.00 0.00 62 1009.6
20260509174035 22 0 1.6 6.4 0.00 0.00 0.00 62 1009.5
20260509173015 22 0 1.6 4.8 0.00 0.00 0.00 58 1009.7
20260509172015 22 0 1.6 4.8 0.00 0.00 0.00 58 1009.9
20260509171015 23 0 3.2 9.7 0.00 0.00 0.00 58 1010.0
20260509170015 22 0 4.8 14.5 0.00 0.00 0.00 62 1010.1
20260509165015 22 0 3.2 8.0 0.00 0.00 0.00 61 1009.9
20260509164015 22 0 3.2 8.0 0.00 0.00 0.00 66 1010.3
20260509163015 21 0 3.2 9.7 0.00 0.00 0.00 66 1010.3
20260509162015 21 0 3.2 16.1 0.00 0.00 0.00 64 1010.4
20260509161015 22 0 3.2 14.5 0.00 0.00 0.00 62 1010.6
20260509160015 22 0 4.8 14.5 0.00 0.00 0.00 64 1010.5
20260509155015 21 0 3.2 9.7 0.00 0.00 0.00 64 1010.7
20260509154015 21 0 4.8 25.7 0.00 0.00 0.00 66 1010.6
20260509153035 20 0 3.2 19.3 0.00 0.00 0.00 65 1010.9
20260509152015 20 0 1.6 4.8 0.00 0.00 0.00 68 1011.0
20260509151015 18 0 1.6 4.8 0.00 0.00 0.00 71 1011.0
20260509150015 18 0 1.6 6.4 0.00 0.00 0.00 71 1011.2
20260509145015 18 0 1.6 6.4 0.00 0.00 0.00 71 1011.1
20260509144035 17 0 1.6 8.0 0.00 0.00 0.00 75 1011.1
20260509143015 17 0 1.6 6.4 0.00 0.00 0.00 75 1011.2
20260509142035 16 0 1.6 4.8 0.00 0.00 0.00 73 1011.5
20260509141015 16 0.0 0.0 0.00 0.00 0.00 77 1011.9
20260509140017 15 0.0 1.6 0.00 0.00 0.00 78 1012.0
20260509135017 15 0.0 3.2 0.00 0.00 0.00 76 1012.0
20260509134017 14 0 1.6 3.2 0.00 0.00 0.00 75 1012.1
20260509133037 13 0.0 3.2 0.00 0.00 0.00 77 1012.2
20260509132017 13 0.0 3.2 0.00 0.00 0.00 79 1012.2
20260509131017 12 0.0 6.4 0.00 0.00 0.00 79 1012.4
20260509130016 12 0.0 0.0 0.00 0.00 0.00 81 1012.4
20260509125017 12 0.0 3.2 0.00 0.00 0.00 80 1012.5
20260509124017 12 0.0 1.6 0.00 0.00 0.00 81 1012.5
20260509123017 11 0.0 0.0 0.00 0.00 0.00 82 1012.6
20260509122017 11 0.0 0.0 0.00 0.00 0.00 82 1012.4
20260509121017 10 0.0 0.0 0.00 0.00 0.00 83 1012.6
20260509120017 10 0.0 1.6 0.00 0.00 0.00 84 1012.8
20260509115016 10 0.0 0.0 0.00 0.00 0.00 86 1012.8
20260509114037 9 0.0 0.0 0.00 0.00 0.00 89 1012.7
20260509113017 9 0.0 0.0 0.00 0.00 0.00 89 1012.5
20260509112037 8 0.0 0.0 0.00 0.00 0.00 89 1012.3
20260509111016 8 0.0 0.0 0.00 0.00 0.00 89 1012.5
20260509110016 8 0.0 0.0 0.00 0.00 0.00 89 1012.4
20260509105036 7 0.0 0.0 0.00 0.00 0.00 89 1012.4
20260509104036 7 0.0 1.6 0.00 0.00 0.00 88 1012.3
20260509103016 7 0.0 3.2 0.00 0.00 0.00 88 1012.3
20260509102018 7 0.0 1.6 0.00 0.00 0.00 89 1012.2
20260509101016 7 0.0 3.2 0.00 0.00 0.00 89 1012.1
20260509100017 7 0.0 1.6 0.00 0.00 0.00 89 1012.1
20260509095016 7 0.0 3.2 0.00 0.00 0.00 89 1012.1
20260509094016 7 0.0 0.0 0.00 0.00 0.00 89 1012.3
20260509093016 7 0.0 0.0 0.00 0.00 0.00 89 1012.3
20260509092036 7 0.0 0.0 0.00 0.00 0.00 89 1012.4
20260509091036 7 0.0 0.0 0.00 0.00 0.00 89 1012.5
20260509090036 7 0.0 0.0 0.00 0.00 0.00 89 1012.5
20260509085016 7 0.0 0.0 0.00 0.00 0.00 88 1012.6
20260509084016 7 0.0 0.0 0.00 0.00 0.00 87 1012.6
20260509083016 7 0.0 0.0 0.00 0.00 0.00 87 1012.5
20260509082016 6 0.0 0.0 0.00 0.00 0.00 87 1012.7